Location: Lake Sonoma
(38.7200°N, 123.0564°W)
Time: 02:26:53
(UTC-07:00)

ISS - All Passes

Search period start: 23 August 2014 00:00
Search period end: 02 September 2014 00:00
Orbit: 413 x 419 km, 51.6° (Epoch: 23 August)

Date Brightness Start Highest point End Pass type
(mag) Time Alt. Az. Time Alt. Az. Time Alt. Az.
23 Aug - 13:08:42 10° SSW 13:11:36 29° SE 13:14:31 10° ENE daylight
23 Aug - 14:45:19 10° W 14:48:17 30° NNW 14:51:17 10° NE daylight
23 Aug - 16:25:08 10° NNW 16:25:52 11° N 16:26:36 10° N daylight
23 Aug - 18:03:19 10° N 18:03:52 10° N 18:04:25 10° NNE daylight
23 Aug - 19:38:32 10° NNW 19:41:29 28° NNE 19:44:25 10° E daylight
23 Aug - 21:15:12 10° WNW 21:18:12 32° SW 21:21:13 10° SSE visible
24 Aug - 12:21:04 10° S 12:23:11 16° SE 12:25:19 10° E daylight
24 Aug - 13:56:24 10° WSW 13:59:38 49° NW 14:02:52 10° NE daylight
24 Aug - 15:35:26 10° NW 15:37:00 13° NNW 15:38:34 10° NNE daylight
24 Aug - 18:50:12 10° NNW 18:52:44 20° NNE 18:55:17 10° ENE daylight
24 Aug - 20:26:25 10° WNW 20:29:43 61° SW 20:33:00 10° SE visible
25 Aug - 13:07:42 10° SW 13:11:01 88° NW 13:14:21 10° NE daylight
25 Aug - 14:45:58 10° WNW 14:48:09 16° NNW 14:50:20 10° NNE daylight
25 Aug - 18:01:55 10° NNW 18:03:55 15° NNE 18:05:56 10° ENE daylight
25 Aug - 19:37:48 10° NW 19:41:08 73° NE 19:44:27 10° ESE daylight
25 Aug - 21:16:33 10° WSW 21:17:25 11° SW 21:18:17 10° SW visible
26 Aug - 12:19:14 10° SSW 12:22:27 48° SE 12:25:40 10° ENE daylight
26 Aug - 13:56:40 10° W 13:59:20 22° NNW 14:02:01 10° NNE daylight
26 Aug - 17:13:42 10° N 17:15:02 12° NNE 17:16:22 10° NE daylight
26 Aug - 18:49:17 10° NW 18:52:28 41° NNE 18:55:38 10° ESE daylight
26 Aug - 20:26:30 10° W 20:28:59 20° SW 20:31:28 10° S visible
27 Aug - 11:31:06 10° SSW 11:33:55 26° SE 11:36:45 10° ENE daylight
27 Aug - 13:07:31 10° W 13:10:33 32° NNW 13:13:36 10° NE daylight
27 Aug - 14:47:12 10° NNW 14:48:06 11° NNW 14:49:00 10° N daylight
27 Aug - 16:25:54 10° N 16:26:05 10° N 16:26:16 10° NNE daylight
27 Aug - 18:00:50 10° NNW 18:03:43 26° NNE 18:06:36 10° E daylight
27 Aug - 19:37:24 10° WNW 19:40:29 35° SW 19:43:33 10° SSE daylight
28 Aug - 10:43:30 10° SSE 10:45:25 15° SE 10:47:21 10° E daylight
28 Aug - 12:18:34 10° WSW 12:21:49 54° NW 12:25:05 10° NE daylight
28 Aug - 13:57:28 10° NW 13:59:09 13° NNW 14:00:50 10° NNE daylight
28 Aug - 17:12:26 10° NNW 17:14:53 19° NNE 17:17:20 10° ENE daylight
28 Aug - 18:48:35 10° NW 18:51:53 68° SW 18:55:11 10° SE daylight
29 Aug - 11:29:49 10° SW 11:33:08 84° SE 11:36:27 10° NE daylight
29 Aug - 13:07:56 10° WNW 13:10:13 17° NNW 13:12:30 10° NNE daylight
29 Aug - 16:24:04 10° NNW 16:25:58 14° NNE 16:27:52 10° NE daylight
29 Aug - 17:59:54 10° NW 18:03:13 65° NE 18:06:31 10° ESE daylight
29 Aug - 19:38:11 10° WSW 19:39:32 12° SW 19:40:53 10° SSW daylight
30 Aug - 10:41:19 10° SSW 10:44:29 43° SE 10:47:39 10° ENE daylight
30 Aug - 12:18:35 10° W 12:21:19 23° NNW 12:24:04 10° NNE daylight
30 Aug - 15:35:48 10° N 15:36:59 12° NNE 15:38:11 10° NE daylight
30 Aug - 17:11:19 10° NW 17:14:27 38° NNE 17:17:35 10° ESE daylight
30 Aug - 18:48:24 10° W 18:51:01 22° SW 18:53:37 10° S daylight
31 Aug - 09:53:10 10° S 09:55:53 23° SE 09:58:36 10° ENE daylight
31 Aug - 11:29:23 10° W 11:32:28 35° NNW 11:35:34 10° NE daylight
31 Aug - 13:08:54 10° NNW 13:09:58 11° NNW 13:11:02 10° N daylight
31 Aug - 16:22:47 10° NNW 16:25:36 25° NNE 16:28:25 10° E daylight
31 Aug - 17:59:16 10° WNW 18:02:24 39° SW 18:05:32 10° SSE daylight
01 Sep - 09:05:41 10° SSE 09:07:19 13° SE 09:08:57 10° E daylight
01 Sep - 10:40:23 10° WSW 10:43:39 60° NW 10:46:57 10° NE daylight
01 Sep - 12:19:08 10° NW 12:20:56 14° NNW 12:22:44 10° NNE daylight
01 Sep - 15:34:19 10° NNW 15:36:40 18° NNE 15:39:02 10° ENE daylight
01 Sep - 17:10:24 10° NW 17:13:43 76° SW 17:17:02 10° SE daylight
